Zurück zum Katalog

OPS 4467 B

AktivNavigationPO
NORAD 813·PAYLOAD·🇺🇸 United States

Gestartet Jun 18, 1964 von Vandenberg Space Force Base

Loading…

Nächste Überflüge (nächste 24 Stunden)

TLE

AktuellSource: Space-Track

Epoche: Sep 14, 2026, 09:39 UTC

1 00813U 64031B   26257.40248035  .00000014  00000-0  29887-4 0  9997
2 00813  99.8405  60.5988 0004526 290.1837  69.8851 14.23729753227621

Verfolge OPS 4467 B in Echtzeit mit AllMySat

Download on the App Store